Tiempo cada hora Celestynow

Hoy, 19 Abril, Lunes

Tiempo Temperatura Precipitaciones Viento Presión Humedad
00:00 +7°C° 0.1 mm 2 mps 751 mmHg 92%
01:00 +7°C° 0 mm 2 mps 751 mmHg 93%
02:00 +7°C° 0 mm 2 mps 750 mmHg 94%
03:00 +6°C° 0 mm 2 mps 750 mmHg 94%
04:00 +6°C° 0 mm 2 mps 750 mmHg 95%
05:00 +7°C° 0 mm 2 mps 750 mmHg 91%
06:00 +8°C° 0 mm 3 mps 750 mmHg 87%
07:00 +10°C° 0 mm 3 mps 750 mmHg 83%
08:00 +11°C° 0 mm 4 mps 750 mmHg 74%
09:00 +12°C° 0 mm 4 mps 750 mmHg 66%
10:00 +14°C° 0 mm 4 mps 750 mmHg 57%
11:00 +14°C° 0 mm 4 mps 750 mmHg 55%
12:00 +14°C° 0 mm 4 mps 750 mmHg 54%
13:00 +14°C° 0 mm 4 mps 750 mmHg 51%
14:00 +14°C° 0 mm 4 mps 750 mmHg 53%
15:00 +13°C° 0 mm 4 mps 750 mmHg 56%
16:00 +13°C° 0 mm 3 mps 750 mmHg 59%
17:00 +12°C° 0 mm 3 mps 750 mmHg 63%
18:00 +11°C° 0 mm 3 mps 750 mmHg 66%
19:00 +9°C° 0 mm 2 mps 750 mmHg 69%
20:00 +9°C° 0 mm 2 mps 750 mmHg 71%
21:00 +9°C° 0 mm 2 mps 750 mmHg 74%
22:00 +8°C° 0 mm 2 mps 750 mmHg 76%
23:00 +7°C° 0 mm 2 mps 750 mmHg 78%

Mañana, 20 Abril, Martes

Tiempo Temperatura Precipitaciones Viento Presión Humedad
00:00 +7°C° 0 mm 2 mps 750 mmHg 81%
01:00 +6°C° 0 mm 2 mps 749 mmHg 84%
02:00 +5°C° 0 mm 2 mps 749 mmHg 84%
03:00 +5°C° 0 mm 2 mps 749 mmHg 84%
04:00 +5°C° 0 mm 2 mps 749 mmHg 84%
05:00 +6°C° 0 mm 2 mps 749 mmHg 79%
06:00 +7°C° 0 mm 3 mps 749 mmHg 74%
07:00 +8°C° 0 mm 3 mps 749 mmHg 69%
08:00 +10°C° 0 mm 2 mps 749 mmHg 64%
09:00 +12°C° 0 mm 2 mps 749 mmHg 59%
10:00 +14°C° 0 mm 2 mps 749 mmHg 54%
11:00 +14°C° 0.3 mm 2 mps 748 mmHg 52%
12:00 +15°C° 0.3 mm 2 mps 748 mmHg 51%
13:00 +15°C° 0.3 mm 2 mps 747 mmHg 50%
14:00 +15°C° 0.5 mm 2 mps 747 mmHg 51%
15:00 +15°C° 0.5 mm 2 mps 747 mmHg 53%
16:00 +15°C° 0.5 mm 2 mps 747 mmHg 55%
17:00 +13°C° 0.3 mm 2 mps 747 mmHg 60%
18:00 +12°C° 0.3 mm 2 mps 747 mmHg 66%
19:00 +11°C° 0.3 mm 1 mps 747 mmHg 71%
20:00 +10°C° 0 mm 1 mps 747 mmHg 73%
21:00 +9°C° 0 mm 1 mps 747 mmHg 74%
22:00 +9°C° 0 mm 1 mps 746 mmHg 76%
23:00 +9°C° 0 mm 1 mps 746 mmHg 76%

Pasado mañana, 21 Abril, Miércoles

Tiempo Temperatura Precipitaciones Viento Presión Humedad
00:00 +9°C° 0 mm 1 mps 746 mmHg 77%
01:00 +7°C° 0 mm 2 mps 746 mmHg 77%
02:00 +7°C° 0 mm 2 mps 746 mmHg 78%
03:00 +7°C° 0 mm 2 mps 746 mmHg 79%
04:00 +7°C° 0 mm 2 mps 746 mmHg 79%
05:00 +8°C° 0 mm 2 mps 746 mmHg 78%
06:00 +9°C° 0 mm 2 mps 746 mmHg 77%
07:00 +10°C° 0 mm 3 mps 746 mmHg 76%
08:00 +10°C° 0.1 mm 3 mps 746 mmHg 76%
09:00 +10°C° 0.1 mm 3 mps 745 mmHg 76%
10:00 +11°C° 0.1 mm 3 mps 745 mmHg 75%
11:00 +12°C° 0.5 mm 4 mps 745 mmHg 71%
12:00 +13°C° 0.5 mm 4 mps 745 mmHg 67%
13:00 +14°C° 0.5 mm 5 mps 745 mmHg 62%
14:00 +14°C° 0.2 mm 5 mps 744 mmHg 60%
15:00 +14°C° 0.2 mm 4 mps 744 mmHg 57%
16:00 +14°C° 0.2 mm 4 mps 744 mmHg 55%
17:00 +13°C° 0 mm 4 mps 744 mmHg 61%
18:00 +11°C° 0 mm 4 mps 744 mmHg 68%
19:00 +9°C° 0 mm 3 mps 744 mmHg 75%
20:00 +9°C° 0 mm 3 mps 744 mmHg 76%
21:00 +9°C° 0 mm 3 mps 744 mmHg 78%
22:00 +9°C° 0 mm 3 mps 744 mmHg 80%
23:00 +9°C° 0 mm 3 mps 744 mmHg 79%

22 Abril, Jueves

Tiempo Temperatura Precipitaciones Viento Presión Humedad
00:00 +9°C° 0 mm 3 mps 744 mmHg 78%
01:00 +8°C° 0 mm 3 mps 744 mmHg 78%
02:00 +7°C° 0 mm 3 mps 745 mmHg 82%
03:00 +6°C° 0 mm 4 mps 745 mmHg 86%
04:00 +5°C° 0 mm 4 mps 745 mmHg 90%
05:00 +5°C° 0 mm 4 mps 745 mmHg 87%
06:00 +5°C° 0 mm 4 mps 746 mmHg 84%
07:00 +5°C° 0 mm 4 mps 746 mmHg 80%
08:00 +6°C° 0 mm 4 mps 746 mmHg 73%
09:00 +6°C° 0 mm 5 mps 746 mmHg 66%
10:00 +7°C° 0 mm 5 mps 746 mmHg 60%
11:00 +8°C° 0 mm 6 mps 747 mmHg 53%
12:00 +8°C° 0 mm 6 mps 747 mmHg 47%
13:00 +9°C° 0 mm 6 mps 747 mmHg 41%
14:00 +8°C° 0 mm 6 mps 747 mmHg 42%
15:00 +8°C° 0 mm 6 mps 747 mmHg 43%
16:00 +8°C° 0 mm 5 mps 747 mmHg 44%
17:00 +7°C° 0 mm 4 mps 747 mmHg 48%
18:00 +7°C° 0 mm 3 mps 747 mmHg 53%
19:00 +6°C° 0 mm 2 mps 747 mmHg 58%
20:00 +5°C° 0 mm 2 mps 747 mmHg 62%
21:00 +3°C° 0 mm 3 mps 747 mmHg 66%
22:00 +2°C° 0 mm 3 mps 747 mmHg 69%
23:00 +2°C° 0 mm 3 mps 747 mmHg 73%

23 Abril, Viernes

Tiempo Temperatura Precipitaciones Viento Presión Humedad
00:00 +2°C° 0 mm 3 mps 747 mmHg 76%
01:00 +1°C° 0 mm 3 mps 747 mmHg 79%
02:00 +1°C° 0 mm 3 mps 747 mmHg 83%
03:00 0°C° 0 mm 4 mps 747 mmHg 86%
04:00 0°C° 0 mm 4 mps 748 mmHg 90%
05:00 0°C° 0 mm 4 mps 748 mmHg 85%
06:00 +1°C° 0 mm 5 mps 748 mmHg 80%
07:00 +2°C° 0 mm 6 mps 749 mmHg 76%
08:00 +2°C° 0.1 mm 6 mps 749 mmHg 76%
09:00 +2°C° 0.1 mm 6 mps 749 mmHg 76%
10:00 +3°C° 0.1 mm 6 mps 750 mmHg 76%
11:00 +4°C° 0.3 mm 7 mps 750 mmHg 73%
12:00 +4°C° 0.3 mm 7 mps 750 mmHg 70%
13:00 +5°C° 0.3 mm 8 mps 750 mmHg 67%
14:00 +5°C° 0.3 mm 7 mps 750 mmHg 70%
15:00 +5°C° 0.3 mm 6 mps 751 mmHg 74%
16:00 +4°C° 0.3 mm 6 mps 751 mmHg 77%
17:00 +5°C° 0.2 mm 5 mps 751 mmHg 80%
18:00 +4°C° 0.2 mm 4 mps 752 mmHg 83%
19:00 +3°C° 0.2 mm 4 mps 752 mmHg 86%
20:00 +2°C° 0 mm 3 mps 752 mmHg 86%
21:00 +2°C° 0 mm 3 mps 753 mmHg 86%
22:00 +2°C° 0 mm 2 mps 753 mmHg 87%
23:00 +1°C° 0 mm 2 mps 753 mmHg 88%

24 Abril, Sábado

Tiempo Temperatura Precipitaciones Viento Presión Humedad
00:00 +1°C° 0 mm 2 mps 753 mmHg 89%
01:00 -1°C° 0 mm 3 mps 753 mmHg 89%
02:00 -1°C° 0 mm 3 mps 753 mmHg 89%
03:00 -1°C° 0 mm 3 mps 753 mmHg 89%
04:00 -1°C° 0 mm 3 mps 752 mmHg 89%
05:00 -1°C° 0 mm 4 mps 752 mmHg 82%
06:00 +1°C° 0 mm 5 mps 752 mmHg 74%
07:00 +2°C° 0 mm 5 mps 752 mmHg 67%
08:00 +3°C° 0 mm 6 mps 751 mmHg 66%
09:00 +4°C° 0 mm 7 mps 751 mmHg 64%
10:00 +5°C° 0 mm 8 mps 750 mmHg 63%
11:00 +5°C° 0.2 mm 8 mps 750 mmHg 64%
12:00 +6°C° 0.2 mm 8 mps 750 mmHg 65%
13:00 +6°C° 0.2 mm 8 mps 750 mmHg 66%
14:00 +6°C° 0.2 mm 8 mps 750 mmHg 68%
15:00 +6°C° 0.2 mm 7 mps 750 mmHg 70%
16:00 +5°C° 0.2 mm 7 mps 750 mmHg 71%
17:00 +4°C° 0.5 mm 6 mps 750 mmHg 77%
18:00 +3°C° 0.5 mm 6 mps 750 mmHg 83%
19:00 +2°C° 0.5 mm 5 mps 751 mmHg 89%
20:00 +1°C° 0 mm 4 mps 751 mmHg 90%
21:00 0°C° 0 mm 4 mps 752 mmHg 90%
22:00 0°C° 0 mm 3 mps 753 mmHg 90%
23:00 -1°C° 0 mm 3 mps 753 mmHg 90%
Mostrar más

Necesitamos Su Consentimiento

Meteoprog y nuestros Proveedores de Servicios pueden almacenar y acceder a sus datos personales como cookies, identificadores de dispositivo u otras tecnologías similares de su dispositivo y procesar dichos datos para personalizar contenido y anuncios, además de ofrecer funciones de redes sociales y analizar el tráfico.

  • Almacenar y/o acceder a información en su dispositivo

    Se puede almacenar o acceder a cookies, identificadores de dispositivo u otra información de su dispositivo para los fines anteriormente indicados.

  • Anuncios y contenido personalizados, medición de anuncios y contenido, percepciones del público, y desarrollo de productos

    Los anuncios y el contenido pueden personalizarse en base a su perfil. Se pueden añadir más datos para personalizar mejor los anuncios y contenidos. Se puede medir el rendimiento de los anuncios y contenidos. Se puede obtener la percepción sobre el público que ha visto los anuncios y contenidos. Dichos datos pueden usarse para desarrollar o mejorar la experiencia del usuario, sistemas y software.

Al hacer clic en ‘Estoy De Acuerdo’ usted permitirá el uso de las cookies, identificadores de dispositivo, balizas web u otras tecnologías similares indicadas. Su configuración puede cambiarse desde el navegador de su dispositivo.

Para ciertos fines, los intereses legítimos pueden ser considerados por encima del consentimiento. Puede leer más sobre ello en nuestra Política de Privacidad y Cookies.